User: anonymous   Login
Location: Unspecified
(0.0000°N, 0.0000°E)
Time: 03:30:41
(UTC+00:00)
Language:

USA 267 - Orbit

View from above orbital plane
View from above orbital plane
View from above satellite
View from above satellite

Ground track
Ground track

The orbit data is extracted from the following two-line orbital elements,

1 41334U 16010A   17166.03056570 0.00000000  00000-0  00000-0 0    03
2 41334 123.0034  78.7167 0003574 145.8261 214.1738 13.41413982    04
Epoch (UTC): 15 June 2017 00:44:00
Eccentricity: 0.0003574
inclination: 123.0034°
perigee height: 1101 km
apogee height: 1106 km
right ascension of ascending node: 78.7167°
argument of perigee: 145.8261°
revolutions per day: 13.41413982
mean anomaly at epoch: 214.1738°
orbit number at epoch: 0

The dashed part of the orbit path shows where the satellite is in the earth's shadow,  

DLR